TimeCST,TemperatureF,Dew PointF,Humidity,Sea Level PressureIn,VisibilityMPH,Wind Direction,Wind SpeedMPH,Gust SpeedMPH,PrecipitationIn,Events,Conditions,WindDirDegrees,DateUTC
12:12 AM,13.1,5.2,71,30.28,10.0,Calm,Calm,-,N/A,,Overcast,0,2014-03-05 06:12:00
12:32 AM,13.1,5.2,71,30.29,10.0,Calm,Calm,-,N/A,,Overcast,0,2014-03-05 06:32:00
12:52 AM,13.5,5.0,69,30.29,10.0,Calm,Calm,-,N/A,,Overcast,0,2014-03-05 06:52:00
1:12 AM,13.5,5.2,70,30.30,10.0,Calm,Calm,-,N/A,,Overcast,0,2014-03-05 07:12:00
1:32 AM,13.1,5.0,70,30.30,10.0,Calm,Calm,-,N/A,,Overcast,0,2014-03-05 07:32:00
1:52 AM,13.1,4.5,68,30.30,10.0,Calm,Calm,-,N/A,,Overcast,0,2014-03-05 07:52:00
2:12 AM,13.1,4.6,69,30.30,10.0,Calm,Calm,-,N/A,,Overcast,0,2014-03-05 08:12:00
2:31 AM,12.9,4.5,69,30.30,10.0,Calm,Calm,-,N/A,,Overcast,0,2014-03-05 08:31:00
2:52 AM,12.0,4.5,72,30.31,10.0,Calm,Calm,-,N/A,,Overcast,0,2014-03-05 08:52:00
3:12 AM,10.9,3.6,72,30.31,10.0,Calm,Calm,-,N/A,,Mostly Cloudy,0,2014-03-05 09:12:00
3:32 AM,9.7,3.0,74,30.30,10.0,Calm,Calm,-,N/A,,Scattered Clouds,0,2014-03-05 09:32:00
3:52 AM,8.8,2.1,74,30.31,10.0,Calm,Calm,-,N/A,,Clear,0,2014-03-05 09:52:00
4:12 AM,7.5,1.6,77,30.32,10.0,Calm,Calm,-,N/A,,Clear,0,2014-03-05 10:12:00
4:32 AM,6.1,1.2,80,30.32,10.0,Calm,Calm,-,N/A,,Clear,0,2014-03-05 10:32:00
4:52 AM,4.6,0.5,83,30.32,10.0,Calm,Calm,-,N/A,,Clear,0,2014-03-05 10:52:00
5:12 AM,3.4,-0.2,85,30.33,10.0,Calm,Calm,-,N/A,,Clear,0,2014-03-05 11:12:00
5:32 AM,4.1,-0.6,81,30.33,10.0,Calm,Calm,-,N/A,,Clear,0,2014-03-05 11:32:00
5:52 AM,5.4,1.0,82,30.33,10.0,Calm,Calm,-,N/A,,Clear,0,2014-03-05 11:52:00
6:12 AM,6.8,0.9,77,30.33,10.0,Calm,Calm,-,N/A,,Clear,0,2014-03-05 12:12:00
6:33 AM,7.0,0.1,74,30.34,10.0,Calm,Calm,-,N/A,,Clear,0,2014-03-05 12:33:00
6:52 AM,4.5,-0.9,78,30.36,10.0,Calm,Calm,-,N/A,,Clear,0,2014-03-05 12:52:00
7:12 AM,3.6,-2.2,77,30.37,10.0,Calm,Calm,-,N/A,,Clear,0,2014-03-05 13:12:00
7:31 AM,4.3,-1.7,76,30.38,10.0,Calm,Calm,-,N/A,,Clear,0,2014-03-05 13:31:00
7:52 AM,2.7,-3.5,76,30.40,10.0,Calm,Calm,-,N/A,,Clear,0,2014-03-05 13:52:00
8:12 AM,6.4,-0.6,73,30.39,10.0,Calm,Calm,-,N/A,,Clear,0,2014-03-05 14:12:00
8:32 AM,9.5,0.9,68,30.40,10.0,NE,4.6,-,N/A,,Clear,50,2014-03-05 14:32:00
8:52 AM,10.8,1.4,66,30.40,10.0,Calm,Calm,-,N/A,,Clear,0,2014-03-05 14:52:00
9:12 AM,12.2,2.3,65,30.40,10.0,Calm,Calm,-,N/A,,Clear,0,2014-03-05 15:12:00
9:32 AM,13.8,3.9,65,30.40,10.0,East,8.1,-,N/A,,Clear,100,2014-03-05 15:32:00
9:52 AM,13.8,3.9,65,30.40,10.0,East,8.1,-,N/A,,Clear,100,2014-03-05 15:52:00
10:12 AM,14.7,4.5,64,30.39,10.0,East,8.1,-,N/A,,Clear,100,2014-03-05 16:12:00
10:32 AM,15.8,5.9,65,30.39,10.0,ESE,9.2,-,N/A,,Clear,110,2014-03-05 16:32:00
10:52 AM,17.1,6.6,64,30.39,10.0,SE,10.4,-,N/A,,Clear,130,2014-03-05 16:52:00
11:12 AM,18.1,7.5,63,30.39,10.0,SE,11.5,16.1,N/A,,Clear,130,2014-03-05 17:12:00
11:32 AM,19.0,8.4,63,30.39,10.0,SE,15.0,-,N/A,,Clear,140,2014-03-05 17:32:00
11:52 AM,19.8,9.1,63,30.39,10.0,SE,12.7,-,N/A,,Clear,130,2014-03-05 17:52:00
12:11 PM,20.7,9.9,63,30.39,10.0,SSE,12.7,20.7,N/A,,Clear,150,2014-03-05 18:11:00
12:32 PM,20.8,9.9,63,30.38,10.0,SSE,13.8,-,N/A,,Clear,150,2014-03-05 18:32:00
12:52 PM,20.8,9.7,62,30.38,10.0,SSE,10.4,-,N/A,,Clear,150,2014-03-05 18:52:00
1:12 PM,21.2,10.2,63,30.38,10.0,SE,11.5,-,N/A,,Clear,130,2014-03-05 19:12:00
1:32 PM,21.7,10.6,62,30.37,10.0,SE,11.5,-,N/A,,Clear,130,2014-03-05 19:32:00
1:52 PM,21.9,10.2,61,30.35,10.0,ESE,15.0,20.7,N/A,,Clear,120,2014-03-05 19:52:00
2:12 PM,22.1,10.2,60,30.36,10.0,SE,12.7,-,N/A,,Clear,140,2014-03-05 20:12:00
2:32 PM,21.9,9.9,60,30.35,10.0,SE,12.7,18.4,N/A,,Clear,140,2014-03-05 20:32:00
2:52 PM,22.5,10.0,59,30.35,10.0,SSE,5.8,19.6,N/A,,Clear,150,2014-03-05 20:52:00
3:12 PM,22.1,10.0,60,30.35,10.0,SSE,12.7,17.3,N/A,,Clear,150,2014-03-05 21:12:00
3:32 PM,22.1,9.7,59,30.35,10.0,SSE,11.5,-,N/A,,Clear,150,2014-03-05 21:32:00
3:52 PM,21.4,9.5,60,30.34,10.0,SSE,11.5,17.3,N/A,,Clear,150,2014-03-05 21:52:00
4:11 PM,21.4,10.2,62,30.33,10.0,SE,11.5,16.1,N/A,,Clear,140,2014-03-05 22:11:00
4:32 PM,20.7,10.0,64,30.33,10.0,SSE,11.5,-,N/A,,Clear,150,2014-03-05 22:32:00
4:52 PM,20.1,9.7,64,30.33,10.0,SSE,12.7,-,N/A,,Clear,150,2014-03-05 22:52:00
5:12 PM,19.4,10.0,67,30.33,10.0,Calm,Calm,-,N/A,,Clear,0,2014-03-05 23:12:00
5:32 PM,18.5,10.2,70,30.32,10.0,SSE,9.2,-,N/A,,Scattered Clouds,150,2014-03-05 23:32:00
5:52 PM,18.3,10.2,71,30.33,10.0,SSE,6.9,-,N/A,,Mostly Cloudy,150,2014-03-05 23:52:00
6:13 PM,18.1,10.4,72,30.31,10.0,SSE,8.1,-,N/A,,Overcast,150,2014-03-06 00:13:00
6:32 PM,17.6,10.4,73,30.32,10.0,SSE,11.5,-,N/A,,Overcast,150,2014-03-06 00:32:00
6:52 PM,17.4,10.4,74,30.30,10.0,SE,10.4,-,N/A,Snow,Light Snow,140,2014-03-06 00:52:00
7:12 PM,16.5,10.2,76,30.31,10.0,SSE,6.9,-,N/A,,Scattered Clouds,150,2014-03-06 01:12:00
7:32 PM,15.8,10.2,79,30.30,10.0,SE,6.9,-,N/A,,Clear,140,2014-03-06 01:32:00
7:52 PM,15.8,10.8,80,30.30,10.0,SSE,9.2,-,N/A,,Mostly Cloudy,150,2014-03-06 01:52:00
8:12 PM,15.4,10.4,80,30.29,10.0,SSE,11.5,17.3,N/A,,Scattered Clouds,150,2014-03-06 02:12:00
8:31 PM,14.9,9.7,80,30.30,10.0,SSE,10.4,18.4,N/A,,Clear,160,2014-03-06 02:31:00
8:52 PM,14.4,9.1,80,30.30,10.0,Calm,Calm,-,N/A,,Clear,0,2014-03-06 02:52:00
9:12 PM,14.0,8.6,79,30.29,10.0,SSE,8.1,-,N/A,,Clear,150,2014-03-06 03:12:00
9:32 PM,14.0,8.6,79,30.29,10.0,SSE,9.2,-,N/A,,Clear,160,2014-03-06 03:32:00
9:52 PM,13.8,8.4,79,30.28,10.0,SSE,6.9,-,N/A,,Clear,150,2014-03-06 03:52:00
10:12 PM,13.6,8.6,80,30.28,10.0,SSE,10.4,-,N/A,,Clear,160,2014-03-06 04:12:00
10:32 PM,13.6,8.6,80,30.28,10.0,Calm,Calm,-,N/A,,Clear,0,2014-03-06 04:32:00
10:52 PM,13.6,8.6,80,30.27,10.0,SSE,10.4,-,N/A,,Mostly Cloudy,160,2014-03-06 04:52:00
11:12 PM,14.0,9.0,80,30.26,10.0,SSE,11.5,-,N/A,,Overcast,160,2014-03-06 05:12:00
11:32 PM,14.5,9.5,80,30.25,10.0,South,12.7,17.3,N/A,,Overcast,170,2014-03-06 05:32:00
11:52 PM,14.9,9.7,80,30.25,10.0,SSE,12.7,19.6,N/A,,Overcast,160,2014-03-06 05:52:00